Погода Борзя

Погода Борзя : погода сейчас, прогноз погоды и архив. Всё, что Вы хотите узнать о погоде Борзя!

Хотите узнать прогноз погоды Борзя? Тогда Вам сюда: Погода Борзя

Поиск расширенной информации на нашем сайте:

Другие новости

Новости СМИ2

Главная страница сайта

Новости сайта

03.07.2017

Напоминаем, что на нашем специализированном сайте Метеоцентр.Азия вы можете получить высокодетализированные автоматические прогнозы погоды по пунктам России, СНГ и мира в авиационном формате (включающие направление и скорость ветра, видимость, явления погоды, количество и форму облачности, нижнюю и верхнюю границу облачности).


Погода Борзя - сегодня

Время (UTC), дата Ветер
(°,м/с) 
Видим.   Явления Облачность Т
(°С)
Тd
(°С)
f(%) Тe
(°С)
Pmin
(гПа)
dP
(гПа)
Po
(мм)
O2
(г/м3)
Тmin Tmax R s Состояние
почвы
06 16.08.17 070 (В) 20000 м    9/8 600 м кучево-дожд., средняя, верхняя 
[Cb calv|Ac trans|Ci sp]
+24.9 +17 62 +39  1010.2  -1.1  702  255           
09 16.08.17 120 (ЮВ) 20000 м  гроза, ливневой дождь  9/9 600 м 
+20.8 +16.3 75 +34  1010.9  -0.3  702  259           
12 16.08.17 110 (В) 20000 м  {гроза, ливн. осадки}  6/1 1000 м средняя, верхняя 
[Cu med, cong|Ac trans|Ci sp]
+19.1 +16.8 87 +35  1011.5  -0.1  702  260    +26  0.4     
15 16.08.17 070 (В) н/о    6/0 средняя, верхняя 
[Ac trans|Ci sp]
+16 +14.5 91 +27  1013  0.6  702  264           
18 16.08.17 060 (СВ) н/о    8/3 600 м верхняя 
[Cu med, cong|Ci sp]
+16 +14.6 91 +27  1012.8  -0.2  702  264           
21 16.08.17 080 (В) 20000 м    9/3 600 м кучево-дожд., средняя, верхняя 
[Cb calv|Ac lent|Ci sp]
+14.5 +13.2 92 +22  1013.6  0.3  702  266           
00 17.08.17 060 (СВ) 20000 м    9/1 1000 м средняя, верхняя 
[Cu hum|Ac cast|Ci fib]
+19.7 +15.7 78 +33  1012.6  0.5  703  261  +14.4        влажная 
03 17.08.17 170 (Ю) 20000 м    9/3 1000 м верхняя 
[Cu hum|Ci fib]
+24.9 +14.1 51 +34  1010.4  -0.9  702  256           
06 17.08.17 180 (Ю) 20000 м    9/5 1000 м кучево-дожд., верхняя 
[Cb calv|Ci fib]
+26.3 +13.6 46 +34  1008.9  -1  701  255           
09 17.08.17 200 (Ю) 20000 м    9/3 1000 м кучево-дожд., верхняя 
[Cb calv|Ci sp]
+26.2 +13 44 +33  1008.1  -0.8  701  255           
12 17.08.17 170 (Ю) 20000 м    9/3 1000 м кучево-дожд., средняя, верхняя 
[Cb calv|Ac lent|Ci fib]
+22.4 +14.6 61 +32  1009.6  0.5  701  258    +27.1       
15 17.08.17 150 (ЮВ) н/о    8/0 средняя, верхняя 
[Ac lent|Ci fib]
+20.7 +13.5 63 +29  1010.4  0.3  701  260           
18 17.08.17 070 (В) н/о    4/0 верхняя 
[Ci sp]
+16.5 +13.2 81 +25  1011.4  -0.2  701  264           
21 17.08.17 320 (СЗ) 20000 м    9/1 1000 м кучево-дожд., средняя, верхняя 
[Cb calv|Ac trans|Ci sp]
+17.3 +12.9 75 +26  1011.1  701  263           
00 18.08.17 210 (ЮЗ) 20000 м    9/0 средняя, верхняя 
[Ac trans|Ci sp]
+21.8 +14.1 62 +31  1010.4  0.5  702  259  +15.9        влажная 
03 18.08.17 210 (ЮЗ) 20000 м    9/1 1000 м кучево-дожд., средняя, верхняя 
[Cb calv|Ac cuf|Ci fib]
+26.3 +13.5 45 +34  1009.2  0.1  701  255           
06 18.08.17 220 (ЮЗ) 4{10}  20000 м    9/5 600 м кучево-дожд., верхняя 
[Cb calv|Ci sp]
+26.7 +13.2 43 +34  1007.7  -1.3  701  254           
09 18.08.17 310 (СЗ) 1{10}  20000 м  в посл. час ливневой дождь  9/6 600 м кучево-дожд., верхняя 
[Cb calv|Ci sp]
+23 +17.5 71 +39  1008  -0.4  700  256           
12 18.08.17 150 (ЮВ) 20000 м  {ливн. осадки}  9/5 600 м кучево-дожд., средняя, верхняя 
[Cb calv|Ac cuf|Ci sp]
+20.7 +15.7 73 +33  1009.5  0.7  701  259    +28.2     
15 18.08.17 350 (С) н/о  {ливн. осадки}  9/3 600 м кучево-дожд., средняя, верхняя 
[Cb calv|Ac cuf|Ci sp]
+20.3 +15.4 73 +32  1009.7  0.1  701  259           
18 18.08.17 тихо ()   н/о  {ливн. осадки}  9/3 600 м кучево-дожд., средняя, верхняя 
[Cb calv|Ac cuf|Ci sp]
+19.7 +15.9 79 +32  1009.5  -0.3  701  260           
21 18.08.17 200 (Ю) 20000 м    9/3 600 м кучево-дожд., средняя, верхняя 
[Cb calv|Ac As|Ci sp]
+19.9 +14 69 +30  1008.9  -0.6  700  260           
00 19.08.17 190 (Ю) 20000 м    8/3 1000 м средняя, верхняя 
[Sc diur, vesp|Ac cuf|Cc]
+23.5 +15 59 +34  1008.1  0.1  700  257  +18.4    0.3    влажная 
03 19.08.17 180 (Ю) 20000 м    9/3 1000 м средняя, верхняя 
[Cu med, cong|Ac cuf|Cc]
+26.7 +15.6 51 +38  1006.6  -0.6  700  253           
06 19.08.17 210 (ЮЗ) 5-10{10}  20000 м    9/6 600 м кучево-дожд., средняя, верхняя 
[Cb calv|Ac lent|Ci sp]
+26.9 +14.3 46 +36  1004.6  -1.8  698  253           
Время (UTC), дата Ветер
(°,м/с) 
Видим.   Явления Облачность Т
(°С)
Тd
(°С)
f(%) Тe
(°С)
Pmin
(гПа)
dP
(гПа)
Po
(мм)
O2
(г/м3)
Тmin Tmax R s Состояние
почвы

Для получения пояснительной информации подведите курсор к названию столбца.

ПОГОДА Борзя - архив

Всё, что Вы хотите узнать о погоде Борзя - удобно и подробно!

Выберите нужную дату (начиная с 1 января 2015* года) и нажмите кнопку "Найти".
Будут отображены архивные сводки погоды по пункту Борзя, начиная с указанной даты.


Отображать данные в формате CSV (для использования в таблицах Excel)


Внимание! Наш архив погоды предназначен исключительно для личного некоммерческого использования в познавательных целях. Если Вам необходимы официальные справки о состоянии погоды (для производственных, юридических, коммерческих и т.п. целей), обращайтесь в органы Росгидромета.

*Примечание: данная дата относится к архиву по метеостанциям СССР (Россия, СНГ, Балтия).
Архив по метеостанциям Зарубежной Европы и Азии (кроме Китая) хранится 10 дней, по другим регионам земного шара (Китай, Африка, Америка, Австралия, Океания) - 1 день.

Борзя - район местоположения метеостанции


Название, широта, долгота, высота метеостанции:
Борзя 50.4°ш. 116.5°д. 676 м над ур. моря [Российская Федерация]

Дополнительная информация

В oтличие oт бoльшинства пoгoдных сайтoв мы публикуем пoдрoбную метеoинфoрмацию в детальнoм прoфессиoнальнoм фoрмате.

Характеристики температуры и влажнoсти вoздуха измеряются на высoте 2 м в тени вдали oт зданий и деревьев.
Скoрoсть ветра измеряется на высoте 10 м (на урoвне рoста челoвека скoрoсть ветра ниже в 1.5-2 раза). Если метеoстанция нахoдится в гoрoде или в лесу, тo скoрoсть ветра занижена на 2-4 м/с пo сравнению с oткрытым местoм. Скoрoсть ветра над акватoриями крупных рек и oзёр, а также на вершинах хoлмoв на 2-5 м/с выше, чем в oбычных услoвиях.
Атмoсфернoе давление в разных тoчках местнoсти мoжет значительнo oтличаться oт давления на метеoстанции, в зависимoсти oт услoвий рельефа (при пoдъёме на 10 м давление пoнижается примернo на 1 мм рт.ст.).